Meacham, OR

5:26 AM PST on January 16, 2017 (GMT -0800)
Meacham

Weather History for KMEH - May, 2013

Change the Weather History Date:

Monday, May 27, 2013

  Actual Average Record
Temperature  
Mean Temperature 44 °F -  
Max Temperature 57 °F 60 °F 80 °F (2005)
Min Temperature 30 °F 34 °F 30 °F (1998)
Degree Days  
Heating Degree Days 22    
Moisture  
Dew Point 40 °F    
Average Humidity 89    
Maximum Humidity 100    
Minimum Humidity 57    
Precipitation  
Precipitation 0.31 in - - ()
Sea Level Pressure  
Sea Level Pressure 29.92 in    
Wind  
Wind Speed 0 mph (North)    
Max Wind Speed 6 mph    
Max Gust Speed -    
Visibility 6 miles    
Events Fog , Rain    
Averages and records for this station are not official NWS values.
T = Trace of Precipitation, MM = Missing Value Source: NWS Daily Summary

Daily Weather History Graph

Daily Weather History Graph

Search for Another Location

Airport or City:

Trip Planner

Search our weather history database for the weather conditions in past years. The results will help you decide how hot, cold, wet, or windy it might be!

Date:

Astronomy

May. 27, 2013 Rise Set
Actual Time 5:11 AM PDT 8:30 PM PDT
Civil Twilight 4:34 AM PDT 9:07 PM PDT
Nautical Twilight 3:47 AM PDT 9:54 PM PDT
Astronomical Twilight 2:48 AM PDT 10:54 PM PDT
Moon 11:09 PM PDT (5/27) 7:56 AM PDT (5/27)
Length of Visible Light 16h 32m
Length of Day
15h 19m
Waning Gibbous, 90% of the Moon is Illuminated
May 27
Waning Gibbous
May 31
Last Quarter
Jun 8
New
Jun 16
First Quarter
Jun 23
Full

Hourly Weather History & Observations

Time (PDT) Temp. Dew Point Humidity Pressure Visibility Wind Dir Wind Speed Gust Speed Precip Events Conditions
12:04 AM 39.2 °F 37.4 °F 93% 30.02 in 3.0 mi Calm Calm - N/A   Overcast
12:19 AM 37.4 °F 37.4 °F 100% 30.02 in 1.5 mi Calm Calm - N/A   Overcast
12:31 AM 37.4 °F 37.4 °F 100% 30.01 in 0.5 mi Calm Calm - N/A Fog Fog
12:43 AM 37.4 °F 35.6 °F 93% 30.01 in 2.5 mi Calm Calm - N/A   Overcast
12:56 AM 37.0 °F 36.0 °F 96% 30.04 in 4.0 mi Calm Calm - N/A   Overcast
1:37 AM 35.6 °F 33.8 °F 93% 30.00 in 1.8 mi Calm Calm - N/A   Overcast
1:56 AM 35.1 °F 34.0 °F 96% 30.03 in 1.2 mi Calm Calm - N/A   Overcast
2:05 AM 35.6 °F 33.8 °F 93% 30.00 in 3.0 mi Calm Calm - N/A   Overcast
2:25 AM 33.8 °F 33.8 °F 100% 30.00 in 10.0 mi Calm Calm - N/A   Scattered Clouds
2:56 AM 33.1 °F 32.0 °F 96% 30.02 in 10.0 mi Calm Calm - N/A   Clear
3:56 AM 32.0 °F 30.9 °F 96% 30.01 in 8.0 mi Calm Calm - N/A   Clear
4:15 AM 32.0 °F 30.2 °F 93% 29.97 in 7.0 mi Calm Calm - N/A   Scattered Clouds
4:23 AM 32.0 °F 30.2 °F 93% 29.97 in 9.0 mi Calm Calm - N/A   Mostly Cloudy
4:56 AM 30.9 °F 30.0 °F 96% 29.99 in 5.0 mi Calm Calm - N/A   Mostly Cloudy
5:04 AM 32.0 °F 30.2 °F 93% 29.96 in 6.0 mi Calm Calm - N/A   Scattered Clouds
5:56 AM 33.1 °F 30.9 °F 92% 29.98 in 10.0 mi Calm Calm - N/A   Scattered Clouds
6:03 AM 33.8 °F 32.0 °F 93% 29.95 in 2.5 mi Calm Calm - N/A   Mostly Cloudy
6:11 AM 33.8 °F 33.8 °F 100% 29.95 in 3.0 mi Calm Calm - N/A   Scattered Clouds
6:56 AM 39.0 °F 37.0 °F 93% 29.95 in 10.0 mi Calm Calm - N/A   Clear
7:56 AM 50.0 °F 44.1 °F 80% 29.92 in 10.0 mi Calm Calm - N/A   Clear
8:56 AM 54.0 °F 44.1 °F 69% 29.90 in 10.0 mi Calm Calm - N/A   Clear
9:56 AM 55.0 °F 42.1 °F 62% 29.89 in 10.0 mi Variable 3.5 mph - N/A   Scattered Clouds
10:56 AM 57.0 °F 42.1 °F 57% 29.88 in 10.0 mi Calm Calm - N/A   Mostly Cloudy
11:56 AM 53.1 °F 41.0 °F 64% 29.89 in 10.0 mi Variable 4.6 mph - N/A   Overcast
12:06 PM 50.0 °F 44.6 °F 82% 29.89 in 1.8 mi Variable 5.8 mph - 0.02 in Rain Rain
12:17 PM 48.2 °F 44.6 °F 87% 29.89 in 3.0 mi Calm Calm - 0.05 in Rain Light Rain
12:56 PM 51.1 °F 46.9 °F 86% 29.90 in 10.0 mi Calm Calm - 0.08 in Rain Light Rain
1:56 PM 52.0 °F 46.0 °F 80% 29.88 in 10.0 mi Calm Calm - 0.00 in Rain Light Rain
2:56 PM 52.0 °F 46.9 °F 83% 29.88 in 7.0 mi Calm Calm - 0.02 in Rain Light Rain
3:34 PM 51.8 °F 48.2 °F 88% 29.85 in 5.0 mi Calm Calm - 0.03 in Rain Light Rain
3:41 PM 51.8 °F 48.2 °F 88% 29.85 in 6.0 mi Calm Calm - 0.03 in Rain Light Rain
3:49 PM 51.8 °F 48.2 °F 88% 29.85 in 4.0 mi Variable 3.5 mph - 0.03 in Rain Light Rain
3:56 PM 50.0 °F 46.9 °F 89% 29.88 in 3.0 mi Calm Calm - 0.04 in Rain Light Rain
4:56 PM 50.0 °F 46.9 °F 89% 29.88 in 4.0 mi Calm Calm - 0.04 in Rain Rain
5:56 PM 51.1 °F 46.0 °F 83% 29.86 in 6.0 mi Calm Calm - 0.02 in   Haze
6:56 PM 50.0 °F 46.0 °F 86% 29.84 in 6.0 mi Calm Calm - 0.00 in Rain Light Rain
7:56 PM 48.0 °F 46.0 °F 93% 29.82 in 10.0 mi Calm Calm - 0.02 in Rain Light Rain
8:56 PM 46.0 °F 44.1 °F 93% 29.81 in 10.0 mi Calm Calm - 0.00 in   Mostly Cloudy
9:56 PM 45.0 °F 43.0 °F 93% 29.81 in 10.0 mi Calm Calm - N/A   Mostly Cloudy
10:56 PM 45.0 °F 43.0 °F 93% 29.80 in 10.0 mi Calm Calm - N/A   Overcast
11:43 PM 46.4 °F 44.6 °F 93% 29.82 in 2.5 mi Calm Calm - 0.05 in Rain Rain
11:56 PM 46.0 °F 44.1 °F 93% 29.82 in 3.0 mi Calm Calm - 0.09 in Rain Rain